Other Surface Observations
Issued by NWS

Home | Current Version | Previous Version | Text Only | Print | Product List | Glossary On
Versions: 1 2 3 4 5 6 7 8 9 10 11 12 13 14 15 16 17 18 19 20 21 22 23 24 25 26 27 28 29 30 31 32 33 34 35 36 37 38 39 40 41 42 43 44 45 46 47 48 49 50
000
SXUS52 KTAE 232118
OSOTAE
OSOTAE
North Florida/South Alabama/Southwest Georgia Weather Roundup
National Weather Service Tallahassee Florida
500 PM EDT SAT JUL 23 2016

Note: "fair" indicates few or no clouds below 12,000 feet with no
significant weather and/or obstructions to visibility.

!FLZ017-115-028-034-025-232200
...North Florida...

CITY           SKY/WX    TMP DP  RH WIND       PRES   REMARKS
TALLAHASSEE    MOSUNNY   94  69  44 S13       29.97F HX  99
APALACHICOLA   SUNNY     89  77  67 S10       29.98F HX 101
PERRY          PTSUNNY   93  76  56 SW8       29.98F HX 105
CROSS CITY       N/A     93  75  55 W7        29.97F HX 104
JACKSONVILLE   MOSUNNY   95  70  44 E9        29.97F HX 101
$$

!FLZ112-006-005-002-011-232200
...Florida Panhandle...

CITY           SKY/WX    TMP DP  RH WIND       PRES   REMARKS
MARIANNA       CLOUDY    92  72  51 N3        29.95F HX  99
BONIFAY        NOT AVBL
PANAMA CITY NW FAIR      89  72  56 S12       29.97F HX  96
TYNDALL AFB    CLOUDY    89  76  65 S9        29.98F HX 100
TYND DRONE APT NOT AVBL
DE FUNIAK SPR  FAIR      90  72  56 S7        29.98F HX  97
EGLIN AFB      PTSUNNY   88  75  65 S10       29.97F HX  97
DESTIN         CLOUDY    90  78  68 VRB6      29.98F HX 104
HURLBURT       SUNNY     88  73  60 S10       29.97F HX  95
CRESTVIEW      CLOUDY    91  72  53 S9        29.98F HX  98
PENSACOLA      CLOUDY    88  74  63 S7        29.98F HX  96
$$

!ALZ063-066-232200
...South Alabama...

CITY           SKY/WX    TMP DP  RH WIND       PRES   REMARKS
DOTHAN         MOSUNNY   91  70  49 SW7       30.01F HX  96
OZARK CAIRNS   SUNNY     92  74  54 SE3       29.97F HX 102
FT RUCKER HELI SUNNY     92  71  50 SW5       29.96F HX  98
RUCKER HELI 3  FAIR      92  68  45 SE6       29.99F HX  96
RUCKER HELI 2  FAIR      92  71  50 SE7       29.96F HX  98
FLORALA APT    PTSUNNY   88  73  61 S7        29.99F HX  95
ANDALUSIA      MOSUNNY   96  72  45 VRB7      29.97F HX 104
TROY           PTSUNNY   90  74  59 SE5       29.98F HX  99
EUFALA         FAIR      96  71  44 S5        29.97S HX 103
MOBILE         PTSUNNY   88  75  65 S10       29.97F HX  97
$$

!GAZ120>161-232200
...Southwest and South Central Georgia...

CITY           SKY/WX    TMP DP  RH WIND       PRES   REMARKS
THOMASVILLE    NOT AVBL
BAINBRIDGE     MOSUNNY   95  72  46 CALM      29.97F HX 103
MOODY AFB      MOSUNNY   94  69  43 SW7       29.97F HX  99
VALDOSTA       MOSUNNY   93  71  48 S6        29.97F HX 100
MOULTRIE       SUNNY     91  70  49 SW5       29.98F HX  97
BLAKELY        CLOUDY    91  72  52 CALM      29.98S HX  98
ALBANY         MOSUNNY   94  69  44 VRB5      29.99F HX  99
TIFTON         FAIR      88  70  55 SW7       29.98F HX  93
FITZGERALD     FAIR      98  73  43 SW9       29.99F HX 108
CORDELE        FAIR      97  70  42 W10       29.98F HX 103
AMERICUS       FAIR      91  63  38 W7        30.00F HX  92
HOMERVILLE     FAIR      95  68  41 SE6       29.97F HX  99
$$

!GMZ750-755-770-775-232200
...Coastal and Buoy Obs...

STATION/POSITION TIME  TEMP    WIND        PRES    VSBY  WAVE
                       AIR SEA DIR/SP/G                  HT/PER
                 (UTC) (F)     (DEG/KT/KT) (MB)    (MI)  (FT/S)
KEATON BEACH     2100   86     220/  9/ 11 1015.1F
CEDAR KEY        2100   87     230/  7/ 11 1015.9F
C TOWER          2100   84     170/  7/  8 1015.9F
APALACHICOLA BUO 2050   84 88  180/  4/  6 1015.7F         2/ 4
PANAMA CITY BUOY 2050   84 88  150/  2/  4 1015.7F         1/ 2
MOBILE BUOY      2100   85 89   CALM  /  4 1014.9F
ORANGE BCH AL BU 2050   85 90  190/ 10/ 12 1015.3F         1/ 5
$$




USA.gov is the U.S. government's official web portal to all federal, state and local government web resources and services.